weather.gov     
National Weather Service

Terminal Aerodrome Forecast
NWS Homepage
This page is being discontinued on March 12, 2014.
The same data is available at this site. Please update your bookmarks.
Thank you, and we apologize for the inconvenience.
Please send an email to SR-SRH.Webmaster@noaa.gov with any concerns.


Current Version
Previous Version:    01  02  03  04  05  06  07  08  09  10  11  12  13  14  15  16  17  18  19  20  21  22  23  24  25  
[Printable]
348
FTUS46 KMTR 231700
TAFOAK
TAF
KOAK 231735Z 2318/2424 15004KT P6SM FEW010 BKN150
     FM232000 27008KT P6SM BKN150
     FM240400 29004KT P6SM SCT025
     FM240800 35004KT P6SM OVC020
     FM241200 12004KT P6SM OVC015
     FM241800 17006KT P6SM SCT015=


U.S. Dept. of Commerce
NOAA National Weather Service
1325 East West Highway
Silver Spring, MD 20910
E-mail: w-nws.webmaster@noaa.gov
Page last modified: May 16, 2007
NATIONAL WEATHER SERVICE: for Safety, for Work, for Fun - FOR LIFE